Location: Newark
(21.1200°N, 73.4000°E)
Time: 18:04:16
(UTC+00:00)

Courier 1B Rocket - Pass Details

Date: 27 January 2020
Orbit: 920 x 1202 km, 28.2° (Epoch: 22 February)

Event Time Altitude Azimuth Distance (km) Brightness Sun altitude
Rises 12:52:16 0° 276° (W) 3,626 9.4 -0.6°
Reaches altitude 10° 12:55:25 10° 263° (W) 2,646 9.1 -1.3°
Maximum altitude 13:00:25 25° 211° (SSW) 1,780 7.1 -2.4°
Drops below altitude 10° 13:05:21 10° 158° (SSE) 2,598 7.2 -3.5°
Sets 13:08:25 0° 145° (SE) 3,544 7.8 -4.2°
